Tisdag 25 februari - FMI:s prognos

Daggp. Vind Medel Byar Luftfukt. Moln
16:00 Molnigt -3° -3° vindpil 7 m/s 14 m/s   991 hPa 77 % 100 %
17:00 Molnigt -3° -3° vindpil 7 m/s 13 m/s   990 hPa 77 % 100 %
18:00 Molnigt -3° -3° vindpil 7 m/s 14 m/s   990 hPa 79 % 100 %
19:00 Molnigt -4° -2° vindpil 7 m/s 14 m/s   989 hPa 82 % 100 %
20:00 Snö -4° -2° vindpil 8 m/s 15 m/s 0,2 mm 989 hPa 84 % 100 %
21:00 Snöblandat regn -4° -1° vindpil 7 m/s 15 m/s 0,3 mm 988 hPa 89 % 100 %
22:00 Snö -5° -2° vindpil 8 m/s 16 m/s 0,2 mm 987 hPa 87 % 100 %
23:00 Snö -5° -2° vindpil 8 m/s 16 m/s 0,2 mm 987 hPa 86 % 100 %

Onsdag 26 februari - FMI:s prognos

Daggp. Vind Medel Byar Luftfukt. Moln
00:00 Snö -5° -2° vindpil 8 m/s 17 m/s 0,3 mm 986 hPa 86 % 100 %
01:00 Snö -5° -2° vindpil 9 m/s 18 m/s 0,5 mm 986 hPa 86 % 100 %
02:00 Snö -6° -2° vindpil 10 m/s 19 m/s 0,7 mm 986 hPa 84 % 100 %
03:00 Snö -6° -2° vindpil 10 m/s 19 m/s 0,8 mm 985 hPa 86 % 100 %
04:00 Snö -6° -2° vindpil 10 m/s 19 m/s 0,7 mm 984 hPa 87 % 100 %
05:00 Snö -6° -2° vindpil 10 m/s 20 m/s 0,9 mm 984 hPa 88 % 100 %
06:00 Snö -6° -1° vindpil 9 m/s 20 m/s 0,8 mm 984 hPa 90 % 100 %
07:00 Snö -6° -3° vindpil 10 m/s 19 m/s 0,4 mm 984 hPa 84 % 100 %
08:00 Snö -7° -3° vindpil 10 m/s 20 m/s 0,5 mm 985 hPa 84 % 100 %
09:00 Snö -7° -3° vindpil 10 m/s 20 m/s 0,4 mm 985 hPa 84 % 100 %
10:00 Snö -7° -3° vindpil 10 m/s 20 m/s 0,4 mm 985 hPa 83 % 100 %
11:00 Snö -6° -3° vindpil 9 m/s 19 m/s 0,8 mm 985 hPa 83 % 100 %
12:00 Snö -7° -3° vindpil 9 m/s 19 m/s 0,8 mm 986 hPa 84 % 100 %
13:00 Snö -7° -4° vindpil 9 m/s 18 m/s 0,5 mm 986 hPa 83 % 100 %
14:00 Snö -7° -4° vindpil 9 m/s 18 m/s 0,5 mm 986 hPa 82 % 100 %
15:00 Snö -7° -4° vindpil 9 m/s 19 m/s 0,5 mm 987 hPa 82 % 100 %
16:00 Snö -7° -4° vindpil 9 m/s 19 m/s 0,7 mm 987 hPa 81 % 100 %
17:00 Snö -1° -8° -4° vindpil 9 m/s 19 m/s 0,7 mm 987 hPa 82 % 100 %
18:00 Snö -1° -7° -4° vindpil 9 m/s 18 m/s 0,7 mm 988 hPa 83 % 100 %
19:00 Snö -1° -7° -4° vindpil 9 m/s 18 m/s 0,6 mm 988 hPa 84 % 100 %
20:00 Snö -1° -7° -4° vindpil 9 m/s 18 m/s 0,6 mm 988 hPa 85 % 100 %
21:00 Snö -7° -3° vindpil 9 m/s 18 m/s 0,7 mm 988 hPa 86 % 100 %
22:00 Snö -6° -3° vindpil 8 m/s 17 m/s 0,9 mm 988 hPa 87 % 100 %
23:00 Snö -6° -2° vindpil 7 m/s 16 m/s 1,1 mm 988 hPa 89 % 100 %

Torsdag 27 februari - FMI:s prognos

Daggp. Vind Medel Byar Luftfukt. Moln
00:00 Snö -5° -2° vindpil 6 m/s 14 m/s 0,8 mm 988 hPa 91 % 100 %
01:00 Snöblandat regn -3° vindpil 5 m/s 11 m/s   988 hPa 98 % 100 %
02:00 Snöblandat regn -3° vindpil 6 m/s 12 m/s 1,7 mm 988 hPa 95 % 100 %
03:00 Snöblandat regn -4° vindpil 5 m/s 12 m/s 0,4 mm 988 hPa 97 % 100 %
04:00 Snöblandat regn -3° vindpil 5 m/s 12 m/s 0,1 mm 988 hPa 96 % 100 %
05:00 Regn -3° vindpil 6 m/s 11 m/s   989 hPa 92 % 100 %
06:00 Molnigt -3° vindpil 5 m/s 11 m/s   989 hPa 91 % 100 %
07:00 Molnigt -3° vindpil 4 m/s 9 m/s 1,3 mm 989 hPa 93 % 100 %
08:00 Snöblandat regn -3° vindpil 4 m/s 8 m/s 0,7 mm 990 hPa 99 % 100 %
09:00 Snöblandat regn -2° vindpil 3 m/s 9 m/s 0,2 mm 990 hPa 98 % 100 %
10:00 Regn -2° vindpil 4 m/s 8 m/s   990 hPa 91 % 97 %
11:00 Regn -1° vindpil 4 m/s 9 m/s   991 hPa 91 % 100 %
12:00 Molnigt -1° vindpil 4 m/s 8 m/s   991 hPa 79 % 75 %
13:00 Regn -1° -1° vindpil 5 m/s 9 m/s 0,2 mm 991 hPa 81 % 100 %
14:00 Regn -1° vindpil 4 m/s 9 m/s 0,1 mm 991 hPa 91 % 100 %
15:00 Regn -1° vindpil 3 m/s 7 m/s   992 hPa 89 % 99 %
16:00 Molnigt vindpil 2 m/s 6 m/s 2,4 mm 992 hPa 90 % 100 %
17:00 Snö -2° vindpil 2 m/s 5 m/s 2,4 mm 992 hPa 100 % 100 %

Vädervarningar

Vädervarningar - från SMHI

Norra Östersjön Varning klass 1 kuling (18-24 m/s) Kommentar: Nordväst 15 m/s, i eftermiddag avtagande. Från tisdag middag ost 15-20 m/s.
Norra Östersjön Varning klass 1 högt vattenstånd När: Från söndag eftermiddag. Var: Hela området, högst i norra delen. Nivå: 75-90 cm i RH 2000. Kommentar: Angiven nivå i RH 2000 motsvarar ca 65-80 cm över årets medelvattenstånd i detta område.
Se alla vädervarningar

Väderstatistik och historik för Täby

Vädret för ett år sedan

Min Max Väderstation
3,5° 9,9° Mörbyväderstation
3,7° 8,7° Stocksund
3,8° 9,3° Solna
3,5° 9,0° Ullnasjön
3,8° 9,5° Rotebro
Förra årets uppmätta temperaturer den 25 feb 2019.

Årstider

Våren ankommer normalt om
24 dagar
Vår 21 mars
Sommar 18 maj
Höst 23 september
Vinter 2 december
Årstidernas genomsnittliga ankomstdatum vid väderstationen Röskär (7 km bort). Källa: Bearbetning av SMHI:s normaltemperaturer.